Huntsville, AL

4:50 AM CST on November 19, 2017 (GMT -0600)
Huntsville International

Weather History for KHSV - November, 2013

Change the Weather History Date:

Wednesday, November 6, 2013

  Actual Average Record
Temperature  
Mean Temperature 64 °F 56 °F  
Max Temperature 77 °F 68 °F 84 °F (1914)
Min Temperature 50 °F 45 °F 22 °F (1939)
Degree Days  
Heating Degree Days 1 9  
Month to date heating degree days 49 52  
Since 1 July heating degree days 180 203  
Cooling Degree Days 0 1  
Month to date cooling degree days 0 6  
Year to date cooling degree days 1833 1946  
Growing Degree Days 16 (Base 50)    
Moisture  
Dew Point 55 °F    
Average Humidity 72    
Maximum Humidity 93    
Minimum Humidity 51    
Precipitation  
Precipitation 0.32 in 0.14 in 1.13 in (1989)
Month to date precipitation 0.32 0.87  
Year to date precipitation 48.96 44.50  
Snow  
Snow 0.00 in - - ()
Month to date snowfall 0.0  
Since 1 July snowfall 0.0  
Since 1 September snowfall 0.0  
Snow Depth 0.00 in    
Sea Level Pressure  
Sea Level Pressure 30.14 in    
Wind  
Wind Speed 9 mph (SSE)    
Max Wind Speed 20 mph    
Max Gust Speed 23 mph    
Visibility 8 miles    
Events Rain    
T = Trace of Precipitation, MM = Missing Value Source: NWS Daily Summary

Daily Weather History Graph

Daily Weather History Graph

Search for Another Location

Airport or City:

Trip Planner

Search our weather history database for the weather conditions in past years. The results will help you decide how hot, cold, wet, or windy it might be!

Date:

Astronomy

Nov. 06, 2013 Rise Set
Actual Time 6:12 AM CST 4:48 PM CST
Civil Twilight 5:46 AM CST 5:14 PM CST
Nautical Twilight 5:16 AM CST 5:44 PM CST
Astronomical Twilight 4:46 AM CST 6:14 PM CST
Moon 9:23 AM CST (11/6) 7:55 PM CST (11/6)
Length of Visible Light 11h 28m
Length of Day
10h 36m
Waxing Crescent, 14% of the Moon is Illuminated
Nov 6
Waxing Crescent
Nov 9
First Quarter
Nov 17
Full
Nov 25
Last Quarter
Dec 2
New

Hourly Weather History & Observations

Time (CST) Temp. Dew Point Humidity Pressure Visibility Wind Dir Wind Speed Gust Speed Precip Events Conditions
12:53 AM 55.0 °F 39.9 °F 57% 30.24 in 10.0 mi ESE 8.1 mph - N/A   Clear
1:53 AM 53.1 °F 39.9 °F 61% 30.23 in 10.0 mi ESE 3.5 mph - N/A   Partly Cloudy
2:53 AM 51.1 °F 41.0 °F 68% 30.21 in 10.0 mi ESE 3.5 mph - N/A   Clear
3:12 AM 51.8 °F 42.8 °F 71% 30.22 in 10.0 mi ESE 4.6 mph - N/A   Mostly Cloudy
3:38 AM 51.8 °F 44.6 °F 76% 30.21 in 10.0 mi ESE 6.9 mph - N/A   Mostly Cloudy
3:49 AM 55.4 °F 46.4 °F 72% 30.21 in 10.0 mi ESE 10.4 mph - N/A   Mostly Cloudy
3:53 AM 55.0 °F 46.0 °F 72% 30.20 in 10.0 mi SE 10.4 mph - N/A   Mostly Cloudy
4:53 AM 57.9 °F 50.0 °F 75% 30.19 in 10.0 mi SE 11.5 mph - N/A   Overcast
5:39 AM 57.2 °F 51.8 °F 82% 30.20 in 10.0 mi SE 10.4 mph - N/A   Overcast
5:53 AM 57.9 °F 51.1 °F 78% 30.19 in 10.0 mi SE 10.4 mph - N/A   Mostly Cloudy
6:53 AM 59.0 °F 52.0 °F 78% 30.19 in 10.0 mi SE 6.9 mph - N/A   Mostly Cloudy
7:53 AM 62.1 °F 54.0 °F 75% 30.21 in 10.0 mi South 11.5 mph - N/A   Mostly Cloudy
8:53 AM 64.0 °F 54.0 °F 70% 30.21 in 10.0 mi SSE 12.7 mph - N/A   Mostly Cloudy
9:53 AM 68.0 °F 55.0 °F 63% 30.20 in 10.0 mi SSE 10.4 mph - 0.00 in   Mostly Cloudy
10:46 AM 71.6 °F 55.4 °F 57% 30.20 in 10.0 mi South 15.0 mph 23.0 mph N/A   Mostly Cloudy
10:53 AM 71.1 °F 55.9 °F 59% 30.19 in 10.0 mi South 11.5 mph 20.7 mph N/A   Mostly Cloudy
11:53 AM 73.0 °F 57.0 °F 57% 30.15 in 10.0 mi SSW 11.5 mph - N/A   Mostly Cloudy
12:07 PM 75.2 °F 57.2 °F 53% 30.15 in 10.0 mi SSE 11.5 mph - N/A   Mostly Cloudy
12:53 PM 75.0 °F 57.0 °F 53% 30.12 in 10.0 mi South 6.9 mph 17.3 mph N/A   Scattered Clouds
1:53 PM 75.9 °F 57.9 °F 54% 30.09 in 10.0 mi SSE 15.0 mph - N/A   Scattered Clouds
2:53 PM 73.9 °F 57.9 °F 57% 30.08 in 10.0 mi South 11.5 mph - N/A   Mostly Cloudy
3:53 PM 73.0 °F 57.9 °F 59% 30.08 in 10.0 mi SSW 8.1 mph - N/A   Mostly Cloudy
4:53 PM 71.1 °F 57.9 °F 63% 30.07 in 10.0 mi SSE 10.4 mph - N/A   Overcast
5:53 PM 70.0 °F 57.9 °F 65% 30.07 in 10.0 mi South 6.9 mph - N/A   Overcast
6:53 PM 70.0 °F 59.0 °F 68% 30.06 in 10.0 mi South 8.1 mph - N/A   Overcast
7:53 PM 69.1 °F 59.0 °F 70% 30.06 in 10.0 mi South 10.4 mph - N/A   Overcast
8:25 PM 69.8 °F 59.0 °F 68% 30.07 in 10.0 mi South 8.1 mph - N/A   Overcast
8:53 PM 68.0 °F 59.0 °F 73% 30.06 in 10.0 mi SSW 6.9 mph - N/A   Overcast
9:29 PM 64.4 °F 62.6 °F 94% 30.09 in 2.5 mi NW 5.8 mph - 0.04 in Rain Rain
9:32 PM 64.4 °F 62.6 °F 94% 30.09 in 2.0 mi NW 6.9 mph - 0.05 in Rain Rain
9:34 PM 64.4 °F 62.6 °F 94% 30.09 in 3.0 mi NW 6.9 mph - 0.06 in Rain Rain
9:53 PM 64.0 °F 62.1 °F 93% 30.08 in 2.0 mi NW 5.8 mph - 0.14 in Rain Heavy Rain
10:05 PM 64.4 °F 62.6 °F 94% 30.10 in 2.5 mi NW 5.8 mph - 0.03 in Rain Rain
10:21 PM 64.4 °F 62.6 °F 94% 30.10 in 2.5 mi WNW 4.6 mph - 0.09 in Rain Light Rain
10:53 PM 63.0 °F 61.0 °F 93% 30.09 in 2.5 mi NNW 6.9 mph - 0.15 in Rain Light Rain
11:00 PM 62.6 °F 60.8 °F 94% 30.09 in 3.0 mi Calm Calm - 0.01 in Rain Light Rain
11:10 PM 62.6 °F 60.8 °F 94% 30.09 in 7.0 mi Calm Calm - 0.02 in Rain Light Rain
11:53 PM 62.1 °F 61.0 °F 96% 30.08 in 8.0 mi SSE 4.6 mph - 0.03 in Rain Light Rain